Regional Weather Roundup
Issued by NWS

Home | Current Version | Previous Version | Text Only | Print | Product List | Glossary On
Versions: 1 2 3 4 5 6 7 8 9 10 11 12 13 14 15 16 17 18 19 20 21 22 23 24 25 26 27 28 29 30 31 32 33 34 35 36 37 38 39 40 41 42 43 44 45 46 47 48 49 50
000
ASUS43 KDMX 030907
RWRIA

WEATHER ROUNDUP FOR IOWA
NATIONAL WEATHER SERVICE DES MOINES IA
400 AM CDT THU SEP 03 2015

NOTE: "FAIR" INDICATES FEW OR NO CLOUDS BELOW 12,000 FEET WITH NO
SIGNIFICANT WEATHER AND/OR OBSTRUCTIONS TO VISIBILITY.

* - THESE STATIONS ARE NOT NWS STATIONS...THUS NOT UNDER NWS
QUALITY CONTROL.  THEY ALSO DO NOT REPORT WEATHER SUCH
AS PRECIPITATION OR FOG.

IAZ001>003-012>014-020>022-031>034-043>046-031000-
   NORTHWEST IOWA

CITY           SKY/WX    TMP DP  RH WIND       PRES   REMARKS
CARROLL *      PTCLDY    72  70  94 S12       29.88S
CHEROKEE *     CLEAR     70  70 100 S6        29.86S
DENISON *      CLEAR     72  70  94 S7        29.85F
LE MARS *        N/A     72  70  94 S7        29.84S
ORANGE CITY *  CLEAR     72  70  94 S6        29.85S
SHELDON *      CLEAR     68  68 100 SE5       29.84S
SIOUX CITY     CLEAR     70  65  84 SE8       29.83S
SPENCER        CLEAR     69  66  90 SE6       29.87S
STORM LAKE *   CLEAR     70  68  94 S8        29.88S
$$

IAZ055>058-069>071-079>083-090>094-031000-
   SOUTHWEST IOWA

CITY           SKY/WX    TMP DP  RH WIND       PRES   REMARKS
ATLANTIC *     MOCLDY    72  70  94 S7        29.89S
AUDUBON *      CLEAR     72  66  83 S5        29.90F
CLARINDA *     MOCLDY    73  70  88 S5        29.91S
COUNCIL BLFS * CLEAR     70  70 100 SE8       29.87S
CRESTON *      MOCLDY    72  70  94 S9        29.93S
LAMONI         MOCLDY    72  69  90 S8        29.93S
RED OAK *      CLEAR     72  70  94 S6        29.89S
SHENANDOAH *   PTCLDY    73  70  88 S5        29.89S
$$

IAZ047>049-059>061-072>074-084-031000-
   CENTRAL IOWA

CITY           SKY/WX    TMP DP  RH WIND       PRES   REMARKS
AMES           PTCLDY    67  67 100 S3        29.90S FOG
ANKENY *       CLEAR     73  70  88 SE3       29.90S
CHARITON *     PTCLDY    72  68  88 S7        29.93S
DES MOINES     PTCLDY    74  68  81 S7        29.90S
GRINNELL*      CLEAR     70  68  94 S6        29.93F
KNOXVILLE *    CLEAR     73  68  83 S7        29.91S
MARSHALLTOWN   CLEAR     71  68  90 SE6       29.91S
PELLA *        CLEAR     72  72 100 S6        29.93S
PERRY *          N/A     72  70  94 S5        29.89F
$$

IAZ004>006-015-016-023>025-035-036-031000-
   NORTH CENTRAL IOWA

CITY           SKY/WX    TMP DP  RH WIND       PRES   REMARKS
ALGONA *       CLEAR     70  68  94 S8        29.89S
CLARION *      CLEAR     70  68  94 S8        29.90S
ESTHERVILLE    CLEAR     66  65  96 SE5       29.88S FOG
FORT DODGE *   CLEAR     72  66  83 S5        29.90S
MASON CITY     CLEAR     66  66 100 S3        29.92R FOG
FOREST CITY *  CLEAR     64  64 100 CALM      29.90S FOG
IOWA FALLS *     N/A     70  68  94 S3        29.92S
$$

IAZ007>011-017>019-026>030-037>042-050>054-066-031000-
   NORTHEAST IOWA

CITY           SKY/WX    TMP DP  RH WIND       PRES   REMARKS
CEDAR RAPIDS   CLEAR     71  70  96 S6        29.93R
CHARLES CITY * CLEAR     66  66 100 SE5       29.92S FOG
CLINTON *      CLEAR     70  66  88 S3        29.97R
DECORAH *      CLOUDY    72  70  94 S3        29.92S
DUBUQUE        PTCLDY    69  67  93 S7        29.95R
MONTICELLO *   MOCLDY    68  68 100 S3        29.94R
OELWEIN *        N/A     68  68 100 SE5       29.94R FOG
WATERLOO       CLEAR     70  68  93 SE5       29.90S
$$

IAZ064-065-067-068-078-031000-
   EAST CENTRAL IOWA

CITY           SKY/WX    TMP DP  RH WIND       PRES   REMARKS
DAVENPORT      MOCLDY    73  68  84 S5        29.95R
IOWA CITY      CLEAR     69  67  93 CALM      29.94R
MT. PLEASANT * MOCLDY    73  68  83 S5        29.94F
MUSCATINE *    PTCLDY    68  66  94 CALM      29.94S
QUAD CITIES    MOCLDY    75  68  78 CALM      29.94R
$$

IAZ062-063-075>077-085>089-095>099-031000-
   SOUTHEAST IOWA

CITY           SKY/WX    TMP DP  RH WIND       PRES   REMARKS
BURLINGTON     MOCLDY    72  70  93 SW6       29.94S
FAIRFIELD *    CLOUDY    72  68  88 SW5       29.94S
FORT MADISON * MOCLDY    73  72  94 S5        29.96S
KEOKUK *       CLOUDY    75  68  78 S6        29.94S
OSKALOOSA *      N/A     70  68  94 S5        29.93F
CENTERVILLE *  CLEAR     70  68  94 S5        29.96S
OTTUMWA          N/A     72  69  90 SW7       29.92S
WASHINGTON *     N/A    N/A N/A N/A MISG        N/A
$$

ABBREVIATIONS USED IN REMARKS
   TC - TEMPERATURES IN CELSIUS
  WCI - WIND CHILL INDEX
   HX - HEAT INDEX
  VSB - VISIBILITY
$$




USA.gov is the U.S. government's official web portal to all federal, state and local government web resources and services.